QPF
0.00 0.00 0.00 0.00 0.00 0.00 0.00 0.00 0.00 0.00 0.00 0.00 0.00 0.00 0.00 0.00 0.00 0.00 0.00 0.00 0.00 0.01 0.01 0.01 0.01 0.01 0.01 0.01 0.01 0.01 0.01 0.01 0.01 0.00 0.00 0.00 0.00 0.00 0.00 0.00 0.00 0.00 0.00
0.00 0.00 0.00 0.00 0.00 0.00 0.00 0.00 0.00 0.00 0.00 0.00 0.00 0.00 0.00 0.00 0.00 0.00 0.00 0.00 0.00 0.00 0.01 0.01 0.01 0.01 0.01 0.01 0.01 0.01 0.01 0.01 0.01 0.00 0.00 0.00 0.00 0.00 0.00 0.00 0.00 0.00 0.00
0.00 0.00 0.00 0.00 0.00 0.00 0.00 0.00 0.00 0.00 0.00 0.00 0.00 0.00 0.00 0.00 0.00 0.00 0.00 0.00 0.00 0.00 0.00 0.01 0.01 0.01 0.01 0.01 0.01 0.01 0.01 0.01 0.00 0.00 0.00 0.00 0.00 0.00 0.00 0.00 0.00 0.00 0.00
0.00 0.00 0.00 0.00 0.00 0.00 0.00 0.00 0.00 0.00 0.00 0.00 0.00 0.00 0.00 0.00 0.00 0.00 0.00 0.00 0.00 0.00 0.00 0.00 0.01 0.01 0.01 0.01 0.01 0.01 0.01 0.01 0.00 0.00 0.00 0.00 0.00 0.00 0.00 0.00 0.00 0.00 0.00
0.00 0.00 0.00 0.00 0.00 0.00 0.00 0.00 0.00 0.00 0.00 0.00 0.00 0.00 0.00 0.00 0.00 0.00 0.00 0.00 0.00 0.00 0.00 0.00 0.01 0.01 0.01 0.00 0.00 0.00 0.01 0.00 0.00 0.00 0.00 0.00 0.00 0.00 0.00 0.00 0.00 0.00 0.00
0.00 0.00 0.00 0.00 0.00 0.00 0.00 0.00 0.00 0.00 0.00 0.00 0.00 0.00 0.00 0.00 0.00 0.00 0.00 0.00 0.00 0.00 0.00 0.00 0.00 0.00 0.00 0.00 0.00 0.00 0.00 0.00 0.00 0.00 0.00 0.00 0.00 0.00 0.00 0.01 0.01 0.01 0.01
0.00 0.00 0.00 0.00 0.00 0.00 0.00 0.00 0.00 0.00 0.00 0.00 0.00 0.00 0.00 0.00 0.00 0.00 0.00 0.00 0.00 0.00 0.00 0.00 0.00 0.00 0.00 0.00 0.00 0.00 0.00 0.00 0.00 0.00 0.00 0.00 0.00 0.00 0.00 0.01 0.01 0.01 0.01
0.00 0.00 0.00 0.00 0.00 0.00 0.00 0.00 0.00 0.00 0.00 0.00 0.00 0.00 0.00 0.00 0.00 0.00 0.00 0.00 0.00 0.00 0.00 0.00 0.00 0.00 0.00 0.00 0.00 0.00 0.00 0.00 0.00 0.00 0.00 0.00 0.00 0.00 0.00 0.01 0.01 0.01 0.01
0.00 0.00 0.00 0.00 0.00 0.00 0.00 0.00 0.00 0.00 0.00 0.00 0.00 0.00 0.00 0.00 0.00 0.00 0.00 0.00 0.00 0.00 0.00 0.00 0.00 0.00 0.00 0.00 0.00 0.00 0.00 0.00 0.00 0.00 0.00 0.00 0.00 0.00 0.01 0.01 0.01 0.01 0.01
0.00 0.00 0.00 0.00 0.00 0.00 0.00 0.00 0.00 0.00 0.00 0.00 0.00 0.00 0.00 0.00 0.00 0.00 0.00 0.00 0.00 0.00 0.00 0.00 0.00 0.00 0.00 0.00 0.00 0.00 0.00 0.00 0.00 0.00 0.00 0.00 0.00 0.00 0.01 0.01 0.01 0.01 0.02
0.00 0.00 0.00 0.00 0.00 0.00 0.00 0.00 0.00 0.00 0.00 0.00 0.00 0.00 0.00 0.00 0.00 0.00 0.00 0.00 0.00 0.00 0.00 0.00 0.00 0.00 0.00 0.00 0.00 0.00 0.00 0.00 0.00 0.00 0.00 0.00 0.00 0.00 0.01 0.01 0.02 0.02 0.02
0.00 0.00 0.00 0.00 0.00 0.00 0.00 0.00 0.00 0.00 0.00 0.00 0.00 0.00 0.00 0.00 0.00 0.00 0.00 0.00 0.00 0.00 0.00 0.00 0.00 0.00 0.00 0.00 0.00 0.00 0.00 0.00 0.00 0.00 0.00 0.00 0.00 0.00 0.01 0.01 0.02 0.02 0.02
0.00 0.00 0.00 0.00 0.00 0.00 0.00 0.00 0.00 0.00 0.00 0.00 0.00 0.00 0.00 0.00 0.00 0.00 0.00 0.00 0.00 0.00 0.00 0.00 0.00 0.00 0.00 0.00 0.00 0.00 0.00 0.00 0.00 0.00 0.00 0.00 0.00 0.00 0.00 0.01 0.01 0.02 0.02
0.00 0.00 0.00 0.00 0.00 0.00 0.00 0.00 0.00 0.00 0.00 0.00 0.00 0.00 0.00 0.00 0.00 0.00 0.00 0.00 0.00 0.00 0.00 0.00 0.00 0.00 0.00 0.00 0.00 0.00 0.00 0.00 0.00 0.00 0.00 0.00 0.00 0.00 0.00 0.01 0.01 0.02 0.03
0.00 0.00 0.00 0.00 0.00 0.00 0.00 0.00 0.00 0.00 0.00 0.00 0.00 0.00 0.00 0.00 0.00 0.00 0.00 0.00 0.00 0.00 0.00 0.00 0.00 0.00 0.00 0.00 0.00 0.00 0.00 0.00 0.00 0.00 0.00 0.00 0.00 0.00 0.00 0.00 0.01 0.02 0.03
0.00 0.00 0.00 0.00 0.00 0.00 0.00 0.00 0.00 0.00 0.00 0.00 0.00 0.00 0.00 0.00 0.00 0.00 0.00 0.00 0.00 0.00 0.00 0.00 0.00 0.00 0.00 0.00 0.00 0.00 0.00 0.00 0.00 0.00 0.00 0.00 0.00 0.00 0.00 0.00 0.00 0.01 0.03
0.00 0.00 0.00 0.00 0.00 0.00 0.00 0.00 0.00 0.00 0.00 0.00 0.00 0.00 0.00 0.00 0.00 0.00 0.00 0.00 0.00 0.00 0.00 0.00 0.00 0.00 0.00 0.00 0.00 0.00 0.00 0.00 0.00 0.00 0.00 0.00 0.00 0.00 0.00 0.00 0.00 0.01 0.02
0.00 0.00 0.00 0.00 0.00 0.00 0.00 0.00 0.00 0.00 0.00 0.00 0.00 0.00 0.00 0.00 0.00 0.00 0.00 0.00 0.00 0.00 0.00 0.00 0.00 0.00 0.00 0.00 0.00 0.00 0.00 0.00 0.00 0.00 0.00 0.00 0.00 0.00 0.00 0.00 0.00 0.01 0.02
0.00 0.00 0.00 0.00 0.00 0.00 0.00 0.00 0.00 0.00 0.00 0.00 0.00 0.00 0.00 0.00 0.00 0.00 0.00 0.00 0.00 0.00 0.00 0.00 0.00 0.00 0.00 0.00 0.00 0.00 0.00 0.00 0.00 0.00 0.00 0.00 0.00 0.00 0.00 0.00 0.00 0.00 0.01
0.00 0.00 0.00 0.00 0.00 0.00 0.00 0.00 0.00 0.00 0.00 0.00 0.00 0.00 0.00 0.00 0.00 0.00 0.00 0.00 0.00 0.00 0.00 0.00 0.00 0.00 0.00 0.00 0.00 0.00 0.00 0.00 0.00 0.00 0.00 0.00 0.00 0.00 0.00 0.00 0.00 0.00 0.00
0.00 0.00 0.00 0.00 0.00 0.00 0.00 0.00 0.00 0.00 0.00 0.00 0.00 0.00 0.00 0.00 0.00 0.00 0.00 0.00 0.00 0.00 0.00 0.00 0.00 0.00 0.00 0.00 0.00 0.00 0.00 0.00 0.00 0.00 0.00 0.00 0.00 0.00 0.00 0.00 0.00 0.00 0.00
0.00 0.00 0.00 0.00 0.00 0.00 0.00 0.00 0.00 0.00 0.00 0.00 0.00 0.00 0.00 0.00 0.00 0.00 0.00 0.00 0.00 0.00 0.00 0.00 0.00 0.00 0.00 0.00 0.00 0.00 0.00 0.00 0.00 0.00 0.00 0.00 0.00 0.00 0.00 0.00 0.00 0.00 0.00
0.00 0.00 0.00 0.00 0.00 0.00 0.00 0.00 0.00 0.00 0.00 0.00 0.00 0.00 0.00 0.00 0.00 0.00 0.00 0.00 0.00 0.00 0.00 0.00 0.00 0.00 0.00 0.00 0.00 0.00 0.00 0.00 0.00 0.00 0.00 0.00 0.00 0.00 0.00 0.00 0.00 0.00 0.00
0.00 0.00 0.00 0.00 0.00 0.00 0.00 0.00 0.00 0.00 0.00 0.00 0.00 0.00 0.00 0.00 0.00 0.00 0.00 0.00 0.00 0.00 0.00 0.00 0.00 0.00 0.00 0.00 0.00 0.00 0.00 0.00 0.01 0.00 0.00 0.00 0.00 0.00 0.00 0.00 0.00 0.00 0.00
0.00 0.00 0.00 0.00 0.00 0.00 0.00 0.00 0.00 0.00 0.00 0.00 0.00 0.00 0.00 0.00 0.00 0.00 0.00 0.00 0.00 0.00 0.00 0.00 0.00 0.00 0.00 0.00 0.00 0.00 0.00 0.00 0.00 0.01 0.00 0.00 0.00 0.00 0.00 0.00 0.00 0.00 0.00
0.00 0.00 0.00 0.00 0.00 0.00 0.00 0.00 0.00 0.00 0.00 0.00 0.00 0.00 0.00 0.00 0.00 0.00 0.00 0.00 0.00 0.00 0.00 0.00 0.00 0.00 0.00 0.00 0.00 0.00 0.00 0.00 0.00 0.00 0.00 0.00 0.00 0.00 0.00 0.00 0.00 0.00 0.00
MSLP
1028.36 1028.25 1028.11 1027.96 1027.85 1027.81 1027.81 1027.84 1027.87 1027.86 1027.78 1027.62 1027.40 1027.16 1026.94 1026.78 1026.69 1026.67 1026.71 1026.76 1026.77 1026.71 1026.58 1026.37 1026.12 1025.87 1025.67 1025.55 1025.52 1025.56 1025.64 1025.71 1025.73 1025.64 1025.43 1025.10 1024.65 1024.11 1023.53 1022.93 1022.36 1021.83 1021.36
1028.17 1028.07 1027.93 1027.81 1027.75 1027.76 1027.83 1027.94 1028.04 1028.09 1028.05 1027.92 1027.73 1027.51 1027.31 1027.17 1027.10 1027.12 1027.19 1027.27 1027.30 1027.27 1027.14 1026.94 1026.69 1026.44 1026.23 1026.11 1026.07 1026.12 1026.21 1026.30 1026.33 1026.27 1026.08 1025.75 1025.30 1024.76 1024.15 1023.53 1022.92 1022.36 1021.85
1028.02 1027.92 1027.78 1027.68 1027.66 1027.72 1027.87 1028.05 1028.23 1028.34 1028.36 1028.28 1028.13 1027.94 1027.76 1027.63 1027.58 1027.61 1027.68 1027.75 1027.79 1027.75 1027.62 1027.41 1027.16 1026.91 1026.71 1026.59 1026.57 1026.64 1026.75 1026.86 1026.92 1026.88 1026.70 1026.38 1025.93 1025.37 1024.74 1024.09 1023.45 1022.86 1022.33
1027.97 1027.86 1027.72 1027.64 1027.64 1027.75 1027.95 1028.19 1028.43 1028.61 1028.69 1028.66 1028.56 1028.40 1028.25 1028.14 1028.09 1028.10 1028.14 1028.18 1028.18 1028.11 1027.96 1027.75 1027.50 1027.27 1027.09 1027.01 1027.03 1027.13 1027.27 1027.41 1027.49 1027.46 1027.29 1026.96 1026.49 1025.92 1025.27 1024.59 1023.93 1023.32 1022.78
1028.03 1027.92 1027.79 1027.71 1027.73 1027.86 1028.08 1028.36 1028.64 1028.86 1028.99 1029.02 1028.96 1028.85 1028.73 1028.63 1028.58 1028.56 1028.56 1028.55 1028.50 1028.38 1028.20 1027.97 1027.74 1027.54 1027.41 1027.38 1027.45 1027.60 1027.78 1027.95 1028.05 1028.01 1027.83 1027.49 1026.99 1026.39 1025.71 1025.02 1024.34 1023.73 1023.19
1028.18 1028.08 1027.96 1027.89 1027.92 1028.05 1028.28 1028.56 1028.84 1029.08 1029.25 1029.32 1029.31 1029.25 1029.17 1029.10 1029.04 1029.00 1028.95 1028.88 1028.77 1028.60 1028.39 1028.15 1027.94 1027.78 1027.72 1027.76 1027.89 1028.09 1028.31 1028.50 1028.59 1028.54 1028.32 1027.94 1027.41 1026.77 1026.07 1025.36 1024.68 1024.08 1023.55
1028.40 1028.32 1028.22 1028.16 1028.18 1028.30 1028.50 1028.76 1029.02 1029.26 1029.44 1029.55 1029.60 1029.60 1029.57 1029.54 1029.49 1029.43 1029.34 1029.22 1029.05 1028.83 1028.59 1028.36 1028.17 1028.07 1028.08 1028.19 1028.38 1028.63 1028.87 1029.05 1029.12 1029.02 1028.76 1028.32 1027.74 1027.06 1026.33 1025.61 1024.94 1024.35 1023.85
1028.60 1028.57 1028.50 1028.46 1028.48 1028.58 1028.74 1028.96 1029.19 1029.41 1029.59 1029.74 1029.84 1029.91 1029.95 1029.96 1029.94 1029.88 1029.77 1029.60 1029.38 1029.13 1028.88 1028.66 1028.51 1028.47 1028.53 1028.71 1028.95 1029.22 1029.46 1029.61 1029.63 1029.47 1029.13 1028.62 1027.98 1027.26 1026.51 1025.79 1025.13 1024.56 1024.09
1028.72 1028.74 1028.72 1028.72 1028.75 1028.83 1028.97 1029.14 1029.33 1029.53 1029.72 1029.89 1030.05 1030.19 1030.30 1030.37 1030.39 1030.35 1030.23 1030.04 1029.80 1029.53 1029.28 1029.08 1028.98 1028.98 1029.11 1029.32 1029.59 1029.86 1030.06 1030.16 1030.10 1029.85 1029.43 1028.85 1028.15 1027.40 1026.63 1025.90 1025.25 1024.70 1024.25
1028.69 1028.78 1028.83 1028.88 1028.94 1029.03 1029.15 1029.29 1029.45 1029.63 1029.83 1030.03 1030.25 1030.45 1030.63 1030.77 1030.84 1030.82 1030.71 1030.52 1030.28 1030.02 1029.78 1029.62 1029.55 1029.61 1029.77 1030.00 1030.26 1030.50 1030.65 1030.66 1030.51 1030.17 1029.66 1029.02 1028.27 1027.48 1026.70 1025.98 1025.34 1024.80 1024.35
1028.48 1028.64 1028.77 1028.89 1029.01 1029.14 1029.27 1029.40 1029.55 1029.73 1029.93 1030.16 1030.42 1030.68 1030.92 1031.12 1031.23 1031.25 1031.17 1031.00 1030.77 1030.54 1030.34 1030.22 1030.19 1030.28 1030.45 1030.68 1030.91 1031.09 1031.16 1031.08 1030.83 1030.41 1029.82 1029.12 1028.35 1027.55 1026.77 1026.04 1025.40 1024.85 1024.39
1028.06 1028.30 1028.53 1028.74 1028.94 1029.12 1029.28 1029.44 1029.60 1029.78 1029.99 1030.25 1030.54 1030.84 1031.13 1031.37 1031.52 1031.58 1031.53 1031.41 1031.22 1031.04 1030.89 1030.81 1030.82 1030.93 1031.10 1031.30 1031.47 1031.57 1031.54 1031.37 1031.03 1030.53 1029.90 1029.17 1028.39 1027.59 1026.83 1026.11 1025.47 1024.91 1024.41
1027.46 1027.78 1028.10 1028.42 1028.71 1028.96 1029.19 1029.38 1029.57 1029.77 1029.99 1030.26 1030.57 1030.89 1031.20 1031.47 1031.66 1031.76 1031.76 1031.68 1031.57 1031.44 1031.35 1031.32 1031.37 1031.48 1031.63 1031.78 1031.88 1031.88 1031.75 1031.49 1031.07 1030.52 1029.87 1029.15 1028.39 1027.63 1026.89 1026.20 1025.56 1024.97 1024.42
1026.72 1027.11 1027.53 1027.94 1028.32 1028.67 1028.96 1029.21 1029.44 1029.66 1029.89 1030.17 1030.47 1030.79 1031.11 1031.39 1031.61 1031.75 1031.81 1031.80 1031.76 1031.71 1031.69 1031.71 1031.78 1031.88 1032.00 1032.08 1032.08 1031.98 1031.76 1031.41 1030.94 1030.37 1029.73 1029.04 1028.34 1027.64 1026.95 1026.29 1025.66 1025.04 1024.45
1025.89 1026.34 1026.83 1027.33 1027.81 1028.24 1028.61 1028.92 1029.19 1029.43 1029.68 1029.94 1030.23 1030.53 1030.84 1031.13 1031.37 1031.56 1031.68 1031.75 1031.79 1031.83 1031.87 1031.94 1032.02 1032.11 1032.17 1032.16 1032.07 1031.88 1031.57 1031.15 1030.65 1030.08 1029.47 1028.85 1028.22 1027.60 1026.99 1026.38 1025.76 1025.13 1024.49
1025.01 1025.52 1026.07 1026.64 1027.20 1027.71 1028.15 1028.52 1028.83 1029.10 1029.35 1029.60 1029.86 1030.14 1030.43 1030.72 1030.98 1031.21 1031.40 1031.56 1031.69 1031.80 1031.91 1032.01 1032.10 1032.15 1032.14 1032.05 1031.86 1031.57 1031.19 1030.72 1030.20 1029.65 1029.10 1028.55 1028.02 1027.49 1026.96 1026.41 1025.83 1025.21 1024.54
1024.13 1024.67 1025.27 1025.89 1026.51 1027.09 1027.60 1028.03 1028.38 1028.67 1028.92 1029.16 1029.40 1029.65 1029.92 1030.21 1030.49 1030.77 1031.02 1031.26 1031.47 1031.66 1031.82 1031.94 1032.02 1032.03 1031.95 1031.77 1031.50 1031.13 1030.68 1030.17 1029.65 1029.13 1028.63 1028.16 1027.72 1027.29 1026.84 1026.36 1025.82 1025.22 1024.54
1023.26 1023.82 1024.45 1025.11 1025.77 1026.41 1026.98 1027.46 1027.86 1028.18 1028.44 1028.66 1028.88 1029.11 1029.36 1029.65 1029.95 1030.27 1030.59 1030.90 1031.18 1031.43 1031.62 1031.76 1031.81 1031.78 1031.64 1031.39 1031.04 1030.60 1030.10 1029.58 1029.05 1028.56 1028.10 1027.70 1027.33 1026.97 1026.60 1026.18 1025.69 1025.12 1024.46
1022.37 1022.95 1023.59 1024.28 1024.98 1025.67 1026.29 1026.83 1027.28 1027.63 1027.90 1028.13 1028.33 1028.55 1028.79 1029.08 1029.40 1029.76 1030.13 1030.49 1030.82 1031.11 1031.33 1031.46 1031.50 1031.43 1031.24 1030.93 1030.53 1030.06 1029.53 1028.99 1028.47 1027.99 1027.56 1027.19 1026.86 1026.54 1026.22 1025.85 1025.41 1024.87 1024.23
1021.43 1022.02 1022.68 1023.39 1024.13 1024.85 1025.53 1026.13 1026.62 1027.01 1027.32 1027.56 1027.76 1027.98 1028.22 1028.51 1028.85 1029.22 1029.63 1030.02 1030.39 1030.70 1030.93 1031.07 1031.09 1031.00 1030.78 1030.46 1030.04 1029.55 1029.02 1028.48 1027.96 1027.47 1027.04 1026.66 1026.33 1026.02 1025.70 1025.35 1024.94 1024.44 1023.83
1020.42 1021.02 1021.69 1022.41 1023.17 1023.94 1024.67 1025.32 1025.88 1026.32 1026.66 1026.93 1027.15 1027.37 1027.62 1027.91 1028.26 1028.65 1029.07 1029.49 1029.87 1030.19 1030.43 1030.57 1030.59 1030.49 1030.29 1029.98 1029.58 1029.11 1028.60 1028.07 1027.54 1027.03 1026.57 1026.14 1025.76 1025.41 1025.07 1024.71 1024.30 1023.83 1023.25
1019.32 1019.92 1020.59 1021.32 1022.11 1022.91 1023.68 1024.39 1025.01 1025.51 1025.90 1026.21 1026.46 1026.71 1026.97 1027.27 1027.62 1028.02 1028.44 1028.86 1029.25 1029.57 1029.81 1029.96 1030.00 1029.93 1029.77 1029.50 1029.16 1028.74 1028.27 1027.75 1027.21 1026.67 1026.15 1025.65 1025.18 1024.75 1024.34 1023.94 1023.52 1023.05 1022.51
1018.12 1018.72 1019.39 1020.12 1020.91 1021.74 1022.55 1023.32 1023.99 1024.55 1025.01 1025.37 1025.66 1025.94 1026.22 1026.54 1026.90 1027.30 1027.72 1028.13 1028.51 1028.83 1029.08 1029.24 1029.32 1029.30 1029.20 1029.02 1028.75 1028.41 1027.99 1027.50 1026.95 1026.37 1025.76 1025.16 1024.59 1024.05 1023.55 1023.08 1022.62 1022.15 1021.64
1016.87 1017.46 1018.11 1018.83 1019.62 1020.45 1021.29 1022.10 1022.82 1023.45 1023.96 1024.38 1024.73 1025.05 1025.37 1025.71 1026.08 1026.49 1026.90 1027.31 1027.68 1028.00 1028.26 1028.45 1028.56 1028.61 1028.59 1028.50 1028.32 1028.06 1027.70 1027.24 1026.69 1026.05 1025.37 1024.66 1023.97 1023.31 1022.70 1022.16 1021.66 1021.18 1020.69
1015.63 1016.19 1016.81 1017.50 1018.27 1019.10 1019.95 1020.78 1021.55 1022.23 1022.80 1023.28 1023.69 1024.06 1024.42 1024.80 1025.19 1025.61 1026.03 1026.43 1026.80 1027.12 1027.38 1027.59 1027.75 1027.86 1027.91 1027.91 1027.82 1027.64 1027.34 1026.91 1026.35 1025.68 1024.92 1024.12 1023.31 1022.54 1021.84 1021.21 1020.67 1020.18 1019.70
1014.46 1014.99 1015.56 1016.22 1016.96 1017.76 1018.60 1019.44 1020.22 1020.94 1021.56 1022.09 1022.56 1022.99 1023.41 1023.83 1024.25 1024.69 1025.12 1025.52 1025.89 1026.21 1026.48 1026.70 1026.89 1027.05 1027.16 1027.22 1027.21 1027.09 1026.83 1026.43 1025.87 1025.17 1024.36 1023.48 1022.59 1021.73 1020.94 1020.25 1019.66 1019.16 1018.70
Thickness
5639 5640 5639 5638 5637 5636 5636 5635 5635 5635 5635 5636 5636 5637 5637 5637 5637 5637 5638 5638 5639 5640 5641 5642 5643 5644 5645 5646 5648 5650 5651 5652 5650 5649 5651 5655 5660 5666 5672 5677 5682 5686 5691
5642 5640 5639 5637 5635 5634 5633 5633 5632 5632 5632 5631 5632 5632 5632 5631 5631 5631 5631 5632 5632 5633 5634 5634 5635 5636 5637 5638 5639 5641 5642 5642 5640 5640 5641 5644 5649 5656 5663 5667 5672 5676 5681
5641 5639 5638 5635 5634 5632 5631 5630 5629 5628 5627 5627 5627 5626 5626 5625 5625 5625 5625 5625 5626 5626 5626 5627 5627 5628 5628 5629 5630 5632 5633 5632 5629 5630 5631 5634 5638 5646 5652 5658 5662 5667 5672
5640 5638 5636 5634 5631 5629 5628 5626 5625 5624 5623 5622 5621 5620 5619 5619 5618 5618 5618 5618 5619 5619 5619 5620 5620 5620 5620 5620 5621 5622 5623 5622 5618 5619 5621 5623 5627 5634 5641 5647 5652 5657 5661
5638 5636 5634 5632 5629 5627 5624 5622 5621 5619 5618 5616 5615 5613 5612 5612 5611 5611 5611 5611 5611 5611 5612 5612 5612 5611 5611 5611 5612 5612 5612 5611 5607 5608 5610 5612 5616 5623 5629 5635 5640 5645 5650
5636 5634 5632 5629 5626 5623 5621 5618 5616 5614 5612 5610 5608 5606 5605 5605 5604 5603 5603 5603 5603 5603 5603 5603 5603 5602 5602 5602 5602 5602 5601 5599 5596 5597 5598 5601 5605 5611 5617 5622 5626 5632 5637
5634 5632 5629 5627 5623 5620 5617 5614 5611 5609 5607 5604 5602 5599 5598 5597 5596 5595 5595 5594 5594 5594 5594 5593 5593 5592 5591 5590 5590 5589 5588 5587 5585 5585 5587 5589 5594 5599 5604 5609 5613 5617 5623
5633 5629 5627 5624 5621 5617 5613 5610 5607 5604 5601 5599 5596 5593 5590 5589 5588 5586 5586 5585 5584 5583 5583 5582 5581 5580 5578 5577 5576 5575 5574 5572 5570 5572 5574 5577 5582 5587 5591 5595 5598 5602 5607
5630 5627 5624 5621 5618 5614 5611 5607 5604 5600 5597 5593 5590 5586 5583 5580 5579 5577 5576 5575 5574 5572 5571 5570 5569 5566 5564 5562 5561 5559 5557 5554 5553 5554 5556 5559 5565 5570 5575 5579 5582 5586 5590
5627 5624 5621 5618 5615 5611 5607 5604 5600 5596 5592 5588 5584 5580 5576 5572 5570 5568 5566 5565 5563 5561 5560 5558 5555 5552 5549 5546 5545 5543 5540 5537 5536 5536 5536 5539 5545 5549 5553 5556 5560 5565 5570
5624 5622 5619 5616 5612 5608 5604 5601 5597 5593 5588 5583 5579 5574 5570 5566 5563 5560 5558 5556 5553 5551 5549 5546 5542 5538 5534 5531 5528 5526 5522 5520 5518 5517 5517 5519 5523 5526 5528 5530 5533 5537 5542
5623 5621 5618 5615 5611 5607 5603 5598 5594 5589 5584 5579 5575 5570 5566 5561 5557 5553 5550 5547 5544 5541 5537 5534 5529 5524 5520 5517 5513 5509 5506 5503 5500 5498 5497 5499 5501 5502 5503 5503 5504 5506 5509
5626 5622 5618 5615 5611 5606 5601 5596 5591 5586 5581 5576 5571 5566 5561 5556 5551 5547 5543 5539 5535 5531 5527 5522 5517 5512 5507 5502 5498 5493 5489 5485 5482 5479 5477 5477 5477 5477 5475 5473 5471 5470 5471
5626 5624 5620 5615 5610 5605 5600 5595 5589 5584 5578 5573 5567 5562 5556 5551 5545 5540 5536 5531 5527 5522 5516 5511 5505 5499 5493 5488 5483 5478 5473 5468 5464 5460 5456 5453 5451 5448 5445 5440 5436 5431 5429
5629 5626 5621 5616 5611 5605 5599 5594 5588 5582 5577 5571 5564 5558 5552 5546 5539 5534 5528 5523 5517 5511 5506 5499 5493 5487 5481 5475 5469 5463 5458 5452 5447 5442 5435 5429 5423 5417 5410 5403 5396 5391 5387
5634 5629 5624 5618 5612 5606 5599 5593 5588 5581 5575 5568 5562 5555 5548 5541 5534 5527 5521 5514 5508 5502 5495 5489 5482 5475 5468 5462 5455 5449 5443 5437 5430 5423 5414 5405 5396 5385 5374 5364 5356 5349 5346
5640 5633 5626 5619 5612 5605 5599 5593 5587 5580 5573 5566 5559 5552 5544 5537 5529 5522 5514 5507 5500 5492 5485 5478 5471 5464 5456 5450 5443 5435 5428 5421 5412 5404 5394 5382 5369 5355 5340 5328 5319 5313 5311
5642 5635 5628 5621 5613 5606 5599 5592 5586 5578 5571 5565 5557 5549 5541 5533 5525 5516 5508 5500 5492 5484 5476 5468 5460 5453 5445 5438 5430 5423 5415 5406 5396 5386 5373 5359 5344 5328 5312 5299 5290 5284 5281
5645 5638 5630 5623 5616 5608 5599 5591 5584 5576 5569 5562 5554 5546 5538 5529 5520 5511 5502 5493 5484 5475 5466 5458 5451 5442 5433 5426 5419 5412 5402 5392 5381 5367 5352 5336 5318 5302 5287 5275 5265 5258 5254
5647 5639 5632 5624 5617 5608 5597 5588 5579 5572 5565 5558 5551 5543 5535 5525 5516 5506 5496 5487 5477 5467 5457 5448 5439 5431 5422 5414 5408 5400 5390 5378 5363 5348 5331 5314 5296 5279 5265 5254 5244 5237 5233
5647 5640 5633 5625 5617 5606 5595 5586 5576 5569 5563 5555 5548 5540 5531 5521 5511 5501 5491 5480 5470 5460 5450 5440 5430 5420 5411 5402 5394 5389 5383 5368 5351 5332 5313 5295 5277 5261 5248 5236 5227 5220 5214
5653 5644 5636 5628 5619 5610 5602 5591 5580 5571 5562 5554 5545 5536 5527 5517 5507 5496 5485 5474 5464 5453 5442 5431 5420 5409 5398 5388 5376 5368 5363 5357 5340 5322 5300 5279 5262 5247 5234 5223 5214 5206 5199
5657 5651 5644 5633 5623 5613 5602 5588 5576 5566 5557 5549 5541 5533 5524 5513 5502 5491 5480 5468 5457 5446 5434 5423 5411 5398 5386 5373 5358 5343 5329 5325 5322 5314 5293 5272 5253 5237 5224 5213 5204 5197 5189
5666 5657 5646 5636 5625 5614 5601 5590 5580 5572 5564 5555 5544 5533 5521 5510 5498 5487 5475 5463 5451 5439 5427 5415 5403 5389 5375 5362 5346 5330 5313 5297 5283 5288 5284 5264 5246 5231 5218 5206 5197 5189 5183
5668 5657 5647 5636 5625 5614 5603 5594 5583 5575 5565 5551 5538 5526 5515 5504 5493 5482 5470 5457 5445 5433 5420 5408 5394 5380 5365 5351 5335 5318 5301 5283 5265 5251 5259 5260 5245 5228 5214 5202 5192 5185 5178
5665 5656 5646 5635 5626 5615 5603 5593 5583 5575 5561 5545 5532 5521 5510 5498 5487 5476 5464 5452 5439 5426 5413 5400 5386 5371 5356 5341 5325 5308 5290 5272 5259 5240 5234 5239 5238 5230 5213 5200 5189 5181 5175